This demonstration page uses our WeatherBlox Daily Observations layout. Learn more.

Left ArrowRight Arrow

Hourly Observations for June 18, 2018

Temp ( °F °C ) Dew Point ( °F °C ) Humidity (%) Winds ( mph kmh ) Pressure ( in mb ) Visibility ( mi km ) Precip ( " mm )
12:53 am 00:53 Clear 74 23.3 73 22.8 97 97 Calm 30.07 1018 7 11 0.00 0.00
1:53 am 01:53 Clear with Mist and Fog 74 23.3 73 22.8 97 97 Calm 30.07 1018 6 10 0.00 0.00
2:53 am 02:53 Clear with Mist and Fog 73 22.8 73 22.8 100 100 Calm 30.06 1018 5 8 0.00 0.00
3:53 am 03:53 Clear with Mist and Fog 72 22.2 72 22.2 100 100 Calm 30.05 1018 4 6 0.00 0.00
4:49 am 04:49 Clear with Mist and Fog 72 22 72 22 100 100 Calm 30.06 1018 3 4 0.00 0.00
4:53 am 04:53 Clear with Mist and Fog 72 22.2 72 22.2 100 100 Calm 30.06 1018 3 4 0.00 0.00
5:01 am 05:01 Clear with Mist and Fog 71 21.7 71 21.7 100 100 Calm 30.06 1018 4 6 0.00 0.00
5:53 am 05:53 Clear with Mist and Fog 71 21.7 70 21.1 96 96 Calm 30.06 1018 3 4 0.00 0.00
6:11 am 06:11 Sunny with Mist and Fog 70 21.1 70 21.1 100 100 Calm 30.06 1018 4 6 0.00 0.00
6:40 am 06:40 Sunny with Mist and Fog 71 21.7 71 21.7 100 100 Calm 30.06 1018 3 4 0.00 0.00
6:53 am 06:53 Sunny with Mist and Fog 72 22.2 72 22.2 100 100 Calm 30.07 1018 3 4 0.00 0.00
7:12 am 07:12 Sunny with Mist and Fog 73 22.8 73 22.8 100 100 Calm 30.06 1018 2 3 0.00 0.00
7:19 am 07:19 Sunny with Mist and Fog 73 22.8 73 22.8 100 100 Calm 30.06 1018 3 4 0.00 0.00
7:34 am 07:34 Sunny with Mist and Fog 75 23.9 74 23.3 96 96 Calm 30.06 1018 4 6 0.00 0.00
7:53 am 07:53 Sunny with Mist and Fog 76 24.4 75 23.9 97 97 Calm 30.07 1018 5 8 0.00 0.00
8:53 am 08:53 Sunny 82 27.8 74 23.3 77 77 VRB 5 7 30.08 1019 9 14 0.00 0.00
9:53 am 09:53 Sunny 85 29.4 74 23.3 70 70 W 8 13 30.08 1019 10 16 0.00 0.00
10:53 am 10:53 Sunny 89 31.7 76 24.4 65 65 VRB 6 9 30.08 1019 10 16 0.00 0.00
11:53 am 11:53 Mostly Sunny 91 32.8 75 23.9 59 59 WSW 9 15 30.08 1019 10 16 0.00 0.00
12:53 pm 12:53 Mostly Sunny 91 32.8 74 23.3 57 57 WSW 10 17 30.07 1018 10 16 0.00 0.00
1:53 pm 13:53 Partly Cloudy with Light Rain 93 33.9 74 23.3 54 54 W 10 17 30.05 1018 10 16 0.00 0.03
2:53 pm 14:53 Partly Cloudy 94 34.4 73 22.8 51 51 SW 9 15 30.03 1017 10 16 0.00 0.03
3:53 pm 15:53 Mostly Sunny 93 33.9 73 22.8 52 52 WSW 12 19 30.01 1016 10 16 0.00 0.00
4:53 pm 16:53 Partly Cloudy 92 33.3 73 22.8 54 54 WSW 10 17 29.99 1016 10 16 0.00 0.00
5:53 pm 17:53 Mostly Sunny 93 33.9 72 22.2 50 50 WSW 12 19 29.97 1015 10 16 0.00 0.00
6:53 pm 18:53 Sunny 91 32.8 72 22.2 54 54 WSW 9 15 29.95 1014 10 16 0.00 0.00
7:53 pm 19:53 Sunny 90 32.2 72 22.2 56 56 W 12 19 29.96 1014 10 16 0.00 0.00
8:53 pm 20:53 Sunny 87 30.6 73 22.8 63 63 WSW 6 9 29.96 1015 10 16 0.00 0.00
9:53 pm 21:53 Clear 83 28.3 73 22.8 72 72 SW 3 6 29.97 1015 10 16 0.00 0.00
10:53 pm 22:53 Clear 81 27.2 73 22.8 77 77 W 3 6 29.99 1016 10 16 0.00 0.00
11:53 pm 23:53 Clear 81 27.2 74 23.3 79 79 W 5 7 30.00 1016 10 16 0.00 0.00

Powered by AerisWeather